Time,TemperatureF,DewpointF,PressureIn,WindDirection,WindDirectionDegrees,WindSpeedMPH,WindSpeedGustMPH,Humidity,HourlyPrecipIn,Conditions,Clouds,dailyrainin,SolarRadiationWatts/m^2,SoftwareType,DateUTC
2013-02-21 00:01:00,32.0,31.0,-100.00,SSW,197,1.0,8.0,97,0.00,,,-99.99,0.000000,,2013-02-21 08:01:00,
2013-02-21 00:11:00,32.0,31.0,-100.00,SSW,197,1.0,8.0,97,0.00,,,-99.99,0.000000,,2013-02-21 08:11:00,
2013-02-21 00:42:00,32.0,31.0,-100.00,SW,234,1.0,6.0,97,0.00,,,0.26,0.000000,,2013-02-21 08:42:00,
2013-02-21 00:52:00,32.0,31.0,-100.00,SW,234,1.0,6.0,97,0.00,,,0.26,0.000000,,2013-02-21 08:52:00,
2013-02-21 01:01:00,32.0,31.0,-100.00,SW,234,1.0,6.0,97,0.00,,,0.26,0.000000,,2013-02-21 09:01:00,
2013-02-21 01:11:00,32.0,31.0,-100.00,SW,234,1.0,6.0,97,0.00,,,0.26,0.000000,,2013-02-21 09:11:00,
2013-02-21 01:42:00,32.0,31.0,-100.00,South,181,2.0,9.0,97,0.00,,,0.26,0.000000,,2013-02-21 09:42:00,
2013-02-21 01:52:00,32.0,31.0,-100.00,South,181,2.0,9.0,97,0.00,,,0.26,0.000000,,2013-02-21 09:52:00,
2013-02-21 02:01:00,32.0,31.0,-100.00,South,181,2.0,9.0,97,0.00,,,0.26,0.000000,,2013-02-21 10:01:00,
2013-02-21 02:11:00,32.0,31.0,-100.00,South,181,2.0,9.0,97,0.00,,,0.26,0.000000,,2013-02-21 10:11:00,
2013-02-21 02:31:00,32.0,32.0,-100.00,South,181,4.0,9.0,99,0.00,,,0.26,0.000000,,2013-02-21 10:31:00,
2013-02-21 02:41:00,32.0,32.0,-100.00,South,181,4.0,9.0,99,0.00,,,0.26,0.000000,,2013-02-21 10:41:00,
2013-02-21 02:51:00,32.0,32.0,-100.00,South,181,4.0,9.0,99,0.00,,,0.26,0.000000,,2013-02-21 10:51:00,
2013-02-21 03:01:00,32.0,32.0,-100.00,South,181,4.0,9.0,99,0.00,,,0.26,0.000000,,2013-02-21 11:01:00,
2013-02-21 03:11:00,32.0,32.0,-100.00,South,181,4.0,9.0,99,0.00,,,0.26,0.000000,,2013-02-21 11:11:00,
2013-02-21 03:41:00,33.0,32.0,-100.00,WSW,238,2.0,8.0,98,0.00,,,0.26,0.000000,,2013-02-21 11:41:00,
2013-02-21 03:51:00,33.0,32.0,-100.00,WSW,238,2.0,8.0,98,0.00,,,0.26,0.000000,,2013-02-21 11:51:00,
2013-02-21 04:01:00,33.0,32.0,-100.00,WSW,238,2.0,8.0,98,0.00,,,0.26,0.000000,,2013-02-21 12:01:00,
2013-02-21 04:11:00,33.0,32.0,-100.00,WSW,238,2.0,8.0,98,0.00,,,0.26,0.000000,,2013-02-21 12:11:00,
2013-02-21 04:32:00,33.0,32.0,-100.00,SSW,205,3.0,8.0,98,0.00,,,0.26,0.000000,,2013-02-21 12:32:00,
2013-02-21 04:43:00,33.0,32.0,-100.00,SSW,205,3.0,8.0,98,0.00,,,0.26,0.000000,,2013-02-21 12:43:00,
2013-02-21 04:52:00,33.0,32.0,-100.00,SSW,205,3.0,8.0,98,0.00,,,0.26,0.000000,,2013-02-21 12:52:00,
2013-02-21 05:01:00,33.0,32.0,-100.00,SSW,205,3.0,8.0,98,0.00,,,0.26,0.000000,,2013-02-21 13:01:00,
2013-02-21 05:12:00,33.0,32.0,-100.00,SSW,205,3.0,8.0,98,0.00,,,0.26,0.000000,,2013-02-21 13:12:00,
2013-02-21 06:32:00,33.0,32.0,-100.00,SW,235,3.0,13.0,97,-99.99,,,0.26,0.000000,,2013-02-21 14:32:00,
2013-02-21 06:42:00,33.0,32.0,-100.00,SW,235,3.0,13.0,97,-99.99,,,0.26,0.000000,,2013-02-21 14:42:00,
2013-02-21 06:52:00,33.0,32.0,-100.00,SW,235,3.0,13.0,97,-99.99,,,0.26,0.000000,,2013-02-21 14:52:00,
2013-02-21 07:01:00,33.0,32.0,-100.00,SW,235,3.0,13.0,97,-99.99,,,0.26,0.000000,,2013-02-21 15:01:00,
2013-02-21 07:12:00,33.0,32.0,-100.00,SW,235,3.0,13.0,97,-99.99,,,0.26,0.000000,,2013-02-21 15:12:00,
2013-02-21 07:32:00,34.0,32.0,-100.00,SSW,196,3.0,8.0,93,0.00,,,0.26,43.000000,,2013-02-21 15:32:00,
2013-02-21 07:42:00,34.0,32.0,-100.00,SSW,196,3.0,8.0,93,0.00,,,0.26,43.000000,,2013-02-21 15:42:00,
2013-02-21 07:52:00,34.0,32.0,-100.00,SSW,196,3.0,8.0,93,0.00,,,0.26,43.000000,,2013-02-21 15:52:00,
2013-02-21 08:01:00,34.0,32.0,-100.00,SSW,196,3.0,8.0,93,0.00,,,0.26,43.000000,,2013-02-21 16:01:00,
2013-02-21 08:12:00,34.0,32.0,-100.00,SSW,196,3.0,8.0,93,0.00,,,0.26,43.000000,,2013-02-21 16:12:00,
2013-02-21 08:42:00,38.0,31.0,-100.00,SSW,202,5.0,11.0,75,0.00,,,0.26,269.000000,,2013-02-21 16:42:00,
2013-02-21 08:52:00,38.0,31.0,-100.00,SSW,202,5.0,11.0,75,0.00,,,0.26,269.000000,,2013-02-21 16:52:00,
2013-02-21 09:01:00,38.0,31.0,-100.00,SSW,202,5.0,11.0,75,0.00,,,0.26,269.000000,,2013-02-21 17:01:00,
2013-02-21 09:11:00,38.0,31.0,-100.00,SSW,202,5.0,11.0,75,0.00,,,0.26,269.000000,,2013-02-21 17:11:00,
2013-02-21 09:32:00,36.0,30.0,-100.00,SSW,199,8.0,14.0,79,0.00,,,0.26,319.000000,,2013-02-21 17:32:00,
2013-02-21 09:42:00,36.0,30.0,-100.00,SSW,199,8.0,14.0,79,0.00,,,0.26,319.000000,,2013-02-21 17:42:00,
2013-02-21 09:52:00,36.0,30.0,-100.00,SSW,199,8.0,14.0,79,0.00,,,0.26,319.000000,,2013-02-21 17:52:00,
2013-02-21 10:01:00,36.0,30.0,-100.00,SSW,199,8.0,14.0,79,0.00,,,0.26,319.000000,,2013-02-21 18:01:00,
2013-02-21 10:11:00,36.0,30.0,-100.00,SSW,199,8.0,14.0,79,0.00,,,0.26,319.000000,,2013-02-21 18:11:00,
2013-02-21 11:42:00,40.0,33.0,-100.00,South,189,7.0,14.0,75,-99.99,,,0.26,444.000000,,2013-02-21 19:42:00,
2013-02-21 11:52:00,40.0,33.0,-100.00,South,189,7.0,14.0,75,-99.99,,,0.26,444.000000,,2013-02-21 19:52:00,
2013-02-21 12:01:00,40.0,33.0,-100.00,South,189,7.0,14.0,75,-99.99,,,0.26,444.000000,,2013-02-21 20:01:00,
2013-02-21 12:11:00,40.0,33.0,-100.00,South,189,7.0,14.0,75,-99.99,,,0.26,444.000000,,2013-02-21 20:11:00,
2013-02-21 12:42:00,41.0,34.0,-100.00,South,182,6.0,11.0,77,0.00,,,0.26,327.000000,,2013-02-21 20:42:00,
2013-02-21 12:52:00,41.0,34.0,-100.00,South,182,6.0,11.0,77,0.00,,,0.26,327.000000,,2013-02-21 20:52:00,
2013-02-21 13:02:00,41.0,34.0,-100.00,South,182,6.0,11.0,77,0.00,,,0.26,327.000000,,2013-02-21 21:02:00,
2013-02-21 13:11:00,41.0,34.0,-100.00,South,182,6.0,11.0,77,0.00,,,0.26,327.000000,,2013-02-21 21:11:00,
2013-02-21 13:42:00,45.0,33.0,-100.00,West,278,3.0,9.0,63,0.00,,,0.26,660.000000,,2013-02-21 21:42:00,
2013-02-21 13:52:00,45.0,33.0,-100.00,West,278,3.0,9.0,63,0.00,,,0.26,660.000000,,2013-02-21 21:52:00,
2013-02-21 14:01:00,45.0,33.0,-100.00,West,278,3.0,9.0,63,0.00,,,0.26,660.000000,,2013-02-21 22:01:00,
2013-02-21 14:11:00,45.0,33.0,-100.00,West,278,3.0,9.0,63,0.00,,,0.26,660.000000,,2013-02-21 22:11:00,
2013-02-21 14:42:00,43.0,30.0,-100.00,WNW,294,4.0,10.0,60,0.00,,,0.18,489.000000,,2013-02-21 22:42:00,
2013-02-21 14:52:00,43.0,30.0,-100.00,WNW,294,4.0,10.0,60,0.00,,,0.18,489.000000,,2013-02-21 22:52:00,
2013-02-21 15:01:00,43.0,30.0,-100.00,WNW,294,4.0,10.0,60,0.00,,,0.18,489.000000,,2013-02-21 23:01:00,
2013-02-21 15:11:00,43.0,30.0,-100.00,WNW,294,4.0,10.0,60,0.00,,,0.18,489.000000,,2013-02-21 23:11:00,
2013-02-21 15:42:00,42.0,29.0,-100.00,NE,45,1.0,8.0,59,0.00,,,0.02,339.000000,,2013-02-21 23:42:00,
2013-02-21 15:52:00,42.0,29.0,-100.00,NE,45,1.0,8.0,59,0.00,,,0.02,339.000000,,2013-02-21 23:52:00,
2013-02-21 16:01:00,42.0,29.0,-100.00,NE,45,1.0,8.0,59,0.00,,,0.02,339.000000,,2013-02-22 00:01:00,
2013-02-21 16:11:00,42.0,29.0,-100.00,NE,45,1.0,8.0,59,0.00,,,0.02,339.000000,,2013-02-22 00:11:00,
2013-02-21 16:32:00,46.0,26.0,-100.00,ENE,66,3.0,10.0,45,0.00,,,0.00,382.000000,,2013-02-22 00:32:00,
2013-02-21 16:42:00,46.0,26.0,-100.00,ENE,66,3.0,10.0,45,0.00,,,0.00,382.000000,,2013-02-22 00:42:00,
2013-02-21 16:52:00,46.0,26.0,-100.00,ENE,66,3.0,10.0,45,0.00,,,0.00,382.000000,,2013-02-22 00:52:00,
2013-02-21 17:01:00,46.0,26.0,-100.00,ENE,66,3.0,10.0,45,0.00,,,0.00,382.000000,,2013-02-22 01:01:00,
2013-02-21 17:11:00,46.0,26.0,-100.00,ENE,66,3.0,10.0,45,0.00,,,0.00,382.000000,,2013-02-22 01:11:00,
2013-02-21 17:42:00,44.0,23.0,-100.00,South,174,2.0,7.0,43,0.00,,,0.00,167.000000,,2013-02-22 01:42:00,
2013-02-21 17:52:00,44.0,23.0,-100.00,South,174,2.0,7.0,43,0.00,,,0.00,167.000000,,2013-02-22 01:52:00,
2013-02-21 18:01:00,44.0,23.0,-100.00,South,174,2.0,7.0,43,0.00,,,0.00,167.000000,,2013-02-22 02:01:00,
2013-02-21 18:11:00,44.0,23.0,-100.00,South,174,2.0,7.0,43,0.00,,,0.00,167.000000,,2013-02-22 02:11:00,
2013-02-21 18:32:00,37.0,26.0,-100.00,NNE,15,3.0,5.0,63,0.00,,,0.00,7.000000,,2013-02-22 02:32:00,
2013-02-21 18:42:00,37.0,26.0,-100.00,NNE,15,3.0,5.0,63,0.00,,,0.00,7.000000,,2013-02-22 02:42:00,
2013-02-21 18:52:00,37.0,26.0,-100.00,NNE,15,3.0,5.0,63,0.00,,,0.00,7.000000,,2013-02-22 02:52:00,
2013-02-21 19:01:00,37.0,26.0,-100.00,NNE,15,3.0,5.0,63,0.00,,,0.00,7.000000,,2013-02-22 03:01:00,
2013-02-21 19:11:00,37.0,26.0,-100.00,NNE,15,3.0,5.0,63,0.00,,,0.00,7.000000,,2013-02-22 03:11:00,
2013-02-21 19:32:00,35.0,25.0,-100.00,ENE,68,0.0,7.0,66,0.00,,,0.00,0.000000,,2013-02-22 03:32:00,
2013-02-21 19:42:00,35.0,25.0,-100.00,ENE,68,0.0,7.0,66,0.00,,,0.00,0.000000,,2013-02-22 03:42:00,
2013-02-21 19:52:00,35.0,25.0,-100.00,ENE,68,0.0,7.0,66,0.00,,,0.00,0.000000,,2013-02-22 03:52:00,
2013-02-21 20:01:00,35.0,25.0,-100.00,ENE,68,0.0,7.0,66,0.00,,,0.00,0.000000,,2013-02-22 04:01:00,
2013-02-21 20:11:00,35.0,25.0,-100.00,ENE,68,0.0,7.0,66,0.00,,,0.00,0.000000,,2013-02-22 04:11:00,
2013-02-21 20:32:00,36.0,26.0,-100.00,SSW,196,1.0,6.0,68,0.00,,,-99.99,0.000000,,2013-02-22 04:32:00,
2013-02-21 20:42:00,36.0,26.0,-100.00,SSW,196,1.0,6.0,68,0.00,,,-99.99,0.000000,,2013-02-22 04:42:00,
2013-02-21 20:52:00,36.0,26.0,-100.00,SSW,196,1.0,6.0,68,0.00,,,-99.99,0.000000,,2013-02-22 04:52:00,
2013-02-21 21:01:00,36.0,26.0,-100.00,SSW,196,1.0,6.0,68,0.00,,,-99.99,0.000000,,2013-02-22 05:01:00,
2013-02-21 21:11:00,36.0,26.0,-100.00,SSW,196,1.0,6.0,68,0.00,,,-99.99,0.000000,,2013-02-22 05:11:00,
2013-02-21 21:32:00,36.0,21.0,-100.00,WSW,242,3.0,7.0,54,0.00,,,0.00,0.000000,,2013-02-22 05:32:00,
2013-02-21 21:42:00,36.0,21.0,-100.00,WSW,242,3.0,7.0,54,0.00,,,0.00,0.000000,,2013-02-22 05:42:00,
2013-02-21 21:52:00,36.0,21.0,-100.00,WSW,242,3.0,7.0,54,0.00,,,0.00,0.000000,,2013-02-22 05:52:00,
2013-02-21 22:01:00,36.0,21.0,-100.00,WSW,242,3.0,7.0,54,0.00,,,0.00,0.000000,,2013-02-22 06:01:00,
2013-02-21 22:11:00,36.0,21.0,-100.00,WSW,242,3.0,7.0,54,0.00,,,0.00,0.000000,,2013-02-22 06:11:00,
2013-02-21 22:32:00,35.0,21.0,-100.00,ENE,66,2.0,7.0,56,0.00,,,0.00,0.000000,,2013-02-22 06:32:00,
2013-02-21 22:42:00,35.0,21.0,-100.00,ENE,66,2.0,7.0,56,0.00,,,0.00,0.000000,,2013-02-22 06:42:00,
2013-02-21 22:52:00,35.0,21.0,-100.00,ENE,66,2.0,7.0,56,0.00,,,0.00,0.000000,,2013-02-22 06:52:00,
2013-02-21 23:01:00,35.0,21.0,-100.00,ENE,66,2.0,7.0,56,0.00,,,0.00,0.000000,,2013-02-22 07:01:00,
2013-02-21 23:11:00,35.0,21.0,-100.00,ENE,66,2.0,7.0,56,0.00,,,0.00,0.000000,,2013-02-22 07:11:00,
2013-02-21 23:42:00,33.0,25.0,-100.00,NE,36,0.0,4.0,73,0.00,,,0.00,0.000000,,2013-02-22 07:42:00,
2013-02-21 23:52:00,33.0,25.0,-100.00,NE,36,0.0,4.0,73,0.00,,,0.00,0.000000,,2013-02-22 07:52:00,